Regional Weather Roundup
Issued by NWS Grand Forks, ND

Home | Current Version | Previous Version | Text Only | Print | Product List | Glossary Off
Versions: 1 2 3 4 5 6 7 8 9 10 11 12 13 14 15 16 17 18 19 20 21 22 23 24 25 26 27 28 29 30 31 32 33 34 35 36 37 38 39 40 41 42 43 44 45 46 47 48 49 50

000
ASUS43 KFGF 040531
RWRFGF
PRAIRIE TO PINES  WEATHER ROUNDUP
NATIONAL WEATHER SERVICE EASTERN NORTH DAKOTA/GRAND FORKS ND
1200 AM CDT FRI SEP 04 2015

 **SATELLITE DATA USED TO AUGMENT SKY COVER AT AUTOMATED STATIONS**
 *****  WEATHER ACROSS EASTERN NORTH DAKOTA  *****

CITY           SKY/WX    TMP DP  RH WIND       PRES   REMARKS
GRAND FORKS    CLOUDY    79  72  79 S15G26    29.75S
GRAND FRKS AFB CLOUDY    79  74  83 S15       29.76S
GRAND FRKS NWS   N/A     77 N/A N/A S15         N/A
DEVILS LAKE    CLOUDY    79  66  65 S9        29.73F
FARGO          MOCLDY    79  73  82 SE12      29.79S
WAHPETON ARPT  MOCLDY    77  70  78 SE12G17   29.80F
$$

 ***** WEATHER ACROSS CENTRAL AND WESTERN NORTH DAKOTA  *****

CITY           SKY/WX    TMP DP  RH WIND       PRES   REMARKS
BISMARCK       MOCLDY    80  69  69 S10       29.69S
MINOT          MOCLDY    71  65  81 NW10      29.72S
JAMESTOWN      CLOUDY    76  72  87 SW6       29.77R
MINOT AFB      CLOUDY    72  68  87 NW10      29.71S
GARRISON         N/A     72  67  84 N7        29.71F
WILLISTON      MOCLDY    68  53  58 N10       29.77F
DICKINSON      CLEAR     72  63  73 NE10      29.72S
HETTINGER      PTCLDY    72  53  51 E10       29.72F
$$

 *****  OTHER AIRPORT OBSERVATIONS IN OUR AREA  *****

CITY           SKY/WX    TMP DP  RH WIND       PRES   REMARKS
WALHALLA       FAIR      81  79  94 MISG      29.72S
GRAFTON AIRPOR FAIR      79  75  89 S12       29.77R
VALLEY CITY AR FAIR      77  77 100 S13       29.78S
CANDO          FAIR      77  66  69 S10       29.73R
CAVALIER APRT  FAIR      81  73  78 S17G23    29.74S
GWINNER          N/A     77  77 100 SE9       29.79S
SHEYENNE NWR     N/A     77  74  92 SE9       29.95S
ROLLA          MOCLDY    82  55  39 S14       29.74R
 ***** THE ABOVE OBSERVATIONS ARE NON NWS ARE NOT QUALITY
       CONTROLLED AND MAY MIS-REPORT RAIN FOR SNOW...
$$

  *****  WEATHER ACROSS NORTHERN MINNESOTA  *****

CITY           SKY/WX    TMP DP  RH WIND       PRES   REMARKS
FLAG ISLAND    CLEAR     72  64  78 S17       29.84F
WARROAD        PTCLDY    72  68  88 SE13G23   29.83S
ROSEAU         PTCLDY    73  68  83 S22G29    29.80S
HALLOCK        CLOUDY    79  72  78 S16       29.76R
THF RVR FALLS  CLOUDY    75  70  83 SE9       29.83R
BAUDETTE       PTCLDY    69  62  78 SE10      29.88R
WASKISH        FAIR      70  64  83 SE8       29.89S
CROOKSTON      CLOUDY    77  72  83 S14G20    29.80S
STEPHEN NDAWN    N/A     79  72  78 S13         N/A
GREENBUSH NDAW   N/A     75  70  83 S13         N/A
$$
  *****  WEATHER ACROSS CENTRAL AND WEST MINNESOTA  *****

CITY           SKY/WX    TMP DP  RH WIND       PRES   REMARKS
FOSSTON        MOCLDY    72  66  83 SE10G18   29.85F
BEMIDJI        PTCLDY    68  66  93 SE7       29.90S
PARK RAPIDS    MOCLDY    72  67  84 SE8       29.90S
ELBOW LAKE     FAIR      74  72  92 SE8       29.84S
WADENA         CLOUDY    73  68  83 SE10      29.88F
DETROIT LAKES  CLOUDY    73  70  88 SE9       29.87S
MOORHEAD       MOCLDY    77  73  88 SE10      29.80F
FERGUS FALLS   PTCLDY    75  72  88 SE13      29.81F
MORRIS MN      PTCLDY    75  73  94 SE10      29.82F FOG
STAPLES        CLOUDY    73  66  78 SE7       29.90S
$$
  *****  WEATHER ELSEWHERE ACROSS MINNESOTA  *****

CITY           SKY/WX    TMP DP  RH WIND       PRES   REMARKS
DULUTH         CLEAR     57  51  80 E7        29.99S
INTRNTL FALLS  CLEAR     64  57  78 SE6       29.93R
ELY            CLEAR     57  52  82 SE3       30.01S
CLOQUET        CLEAR     57  52  82 E6        29.98S
WHEATON        MOCLDY    73  72  94 SE10      29.82S
BRAINERD       PTCLDY    68  65  90 E5        29.92S
HIBBING        CLEAR     55  49  80 E6        29.98S
ALEXANDRIA     CLEAR     73  71  93 SE14      29.88F
SAINT CLOUD    CLEAR     72  68  87 E8        29.90S
MINNEAPOLIS    CLEAR     74  69  85 E13       29.91R
$$

  *****  WEATHER ACROSS SOUTH DAKOTA  *****

CITY           SKY/WX    TMP DP  RH WIND       PRES   REMARKS
SIOUX FALLS    MOCLDY    77  72  84 SE7       29.80F
BROOKINGS      PTCLDY    75  70  83 SE12      29.83S
WATERTOWN      PTCLDY    76  71  85 SE8       29.81F
HURON          MOCLDY    76  72  87 SE10      29.74S
SISSETON         N/A     75  74  96 SE6       29.78F
ABERDEEN       PTCLDY    74  70  87 SE7       29.76S
MITCHELL       CLOUDY    78  73  84 SE10      29.74F
PIERRE         CLOUDY    77  70  79 SE9       29.68F
MOBRIDGE       MOCLDY    75  72  90 E8        29.70F
RAPID CITY     CLOUDY    73  52  47 SE9       29.78S
$$

  *****  SOME WEATHER IN NEARBY STATES *****

CITY           SKY/WX    TMP DP  RH WIND       PRES   REMARKS
GLASGOW MT     PTCLDY    66  36  32 NE23      29.84S
GREAT FALLS MT CLOUDY    50  49  96 SE3       30.00S
CHEYENNE WY    CLEAR     55  46  71 W7        30.02F
SCOTTSBLUFF NE CLOUDY    68  59  73 S5        29.89F
OMAHA NE       PTCLDY    80  69  69 S14       29.85R
DES MOINES IA  PTCLDY    78  69  73 S8        29.90R
DAVENPORT IA   CLEAR     72  70  93 S3        29.93S
CHICAGO IL     MOCLDY    71  67  87 NE8       29.96S
EAU CLAIRE WI  CLOUDY    71  65  81 E6        29.96R
LA CROSSE WI   CLEAR     74  68  81 SE6       29.94R
$$

  *****  SOME NATIONAL WEATHER *****

CITY           SKY/WX    TMP DP  RH WIND       PRES   REMARKS
LA GUARDIA NY  MOCLDY    81  66  60 N3        29.89R
RALEIGH NC     PTCLDY    72  68  87 CALM      29.93S
ATLANTA GA     PTCLDY    72  67  84 NW3       29.98S
NEW ORLEANS LA PTCLDY    79  73  82 CALM      29.95S
OKLAHOMA CITY  PTCLDY    72  65  78 SE7       29.91S
ALBUQUERQUE NM CLOUDY    76  46  34 S10       30.10R
SALT LAKE CITY PTCLDY    79  34  19 S15       29.77S
LOS ANGELES CA PTCLDY    68  59  73 S6        29.86R
BOISE ID       MOCLDY    61  40  45 NW6       29.85S
SEATTLE WA     MOCLDY    55  48  77 NW5       30.01S
$$

*** WEATHER ACROSS MANITOBA...SASKATCHEWAN AND ONTARIO ***
                ***ONTARIO***

CITY           SKY/WX    TMP DP  RH WIND       PRES   REMARKS
GERALDTON      CLEAR     59  55  88 CALM      30.05F
THUNDER BAY    CLEAR     55  54  94 VRB2      30.04R
SIOUX LOOKOUT  PTCLDY    68  57  68 S7        29.97R
TORONTO        MOCLDY    72  64  78 CALM      30.00R
BIG TROUT LK   CLEAR     68  59  73 S9        29.82F
PICKLE LAKE    NOT AVBL
DRYDEN         CLEAR     70  57  64 S15G21    29.94R
KENORA         PTCLDY    73  63  68 S16G26    29.88R
$$
                *** MANITOBA***

CITY           SKY/WX    TMP DP  RH WIND       PRES   REMARKS
BRANDON        MOCLDY    72  68  88 NE8       29.72S
DAUPHIN        PTCLDY    66  63  88 N9        29.78S
ISLAND LAKE    MOCLDY    66  66 100 SE5       29.76F
PILOT MOUND      N/A     81  64  57 S15         N/A
THE PAS        MOCLDY    61  52  72 NW13      29.86S
THOMPSON       MOCLDY    64  52  63 NW8       29.77R
WINNIPEG       PTCLDY    77  72  83 SE18      29.71S
LYNN LAKE      MOCLDY    50  43  76 SW5       29.82R
CHURCHILL      CLOUDY    50  48  93 E15       29.76F
$$
                ***SASKATCHEWAN***

CITY           SKY/WX    TMP DP  RH WIND       PRES   REMARKS
ESTEVAN        CLOUDY    66  50  55 N12G17    29.78F
KINDERSLEY     CLOUDY    50  43  76 S6        30.00R
LLOYDMINSTER   CLEAR     45  37  76 N6        30.01S
PRINCE ALBERT  MOCLDY    52  46  82 N6        29.95R
REGINA         PTCLDY    52  45  76 NW12      29.92R
YORKTON        MOCLDY    61  48  63 N10       29.86S
N. BATTLEFORD  PTCLDY    50  43  76 N9        30.01R
LA RONGE       PTCLDY    54  41  62 NW9       29.94S
SASKATOON        N/A     50  46  87 SW2       30.00R
SWIFT CURRENT  CLOUDY    50  45  81 N8        29.97F
$$
NOTE: THESE ARE AUTOMATED STATIONS WITH LIMITED QUALITY CONTROL
      "FAIR" INDICATES FEW OR NO CLOUDS BELOW 12,000 FEET WITH NO
      SIGNIFICANT WEATHER AND/OR OBSTRUCTIONS TO VISIBILITY.
      SKY/WX - SKY CONDITION AND SIGNIFICANT WEATHER.
      TMP - AIR TEMPERATURE.    DP   - DEWPOINT TEMPERATURE.
      RH  - RELATIVE HUMIDITY.  PRES - PRESSURE.
      HX  - HEAT INDEX.         WCI  - WIND CHILL INDEX.
$


USA.gov is the U.S. government's official web portal to all federal, state and local government web resources and services.